| time (UTC) | temp F | wind direction | speed knots | gust knots | rain 1hr in | rain 24hr in | rain mn in | humidity % | barometer mb |
| 20260831233117 | 73 | 161 | 3.5 | 9.6 | 0.00 | 0.53 | 0.53 | 84 | 1011.2 |
| 20260831231554 | 74 | 161 | 5.2 | 10.4 | 0.00 | 0.53 | 0.53 | 83 | 1011.5 |
| 20260831230053 | 74 | 151 | 4.3 | 8.7 | 0.00 | 0.53 | 0.53 | 81 | 1011.7 |
| 20260831224550 | 74 | 167 | 4.3 | 10.4 | 0.00 | 0.53 | 0.53 | 80 | 1011.7 |
| 20260831223050 | 74 | 189 | 2.6 | 7.0 | 0.00 | 0.53 | 0.53 | 80 | 1012.2 |
| 20260831221546 | 74 | 199 | 1.7 | 5.2 | 0.00 | 0.53 | 0.53 | 84 | 1012.3 |
| 20260831220044 | 74 | 163 | 2.6 | 7.0 | 0.00 | 0.53 | 0.53 | 84 | 1012.3 |
| 20260831214543 | 73 | 140 | 2.6 | 7.0 | 0.00 | 0.55 | 0.53 | 85 | 1012.4 |
| 20260831213040 | 73 | 163 | 3.5 | 7.8 | 0.00 | 0.55 | 0.53 | 86 | 1012.4 |
| 20260831211539 | 72 | 159 | 4.3 | 6.1 | 0.00 | 0.55 | 0.53 | 85 | 1012.4 |
| 20260831210043 | 71 | 131 | 1.7 | 5.2 | 0.00 | 0.55 | 0.53 | 87 | 1012.6 |
| 20260831204538 | 71 | 10 | 5.2 | 7.8 | 0.00 | 0.66 | 0.53 | 86 | 1012.8 |
| 20260831203038 | 71 | 107 | 0.9 | 2.6 | 0.00 | 0.66 | 0.53 | 86 | 1012.4 |
| 20260831201545 | 71 | 109 | 0.9 | 1.7 | 0.00 | 0.66 | 0.53 | 86 | 1012.7 |
| 20260831200037 | 71 | 159 | 0.9 | 4.3 | 0.00 | 0.66 | 0.53 | 87 | 1012.4 |
| 20260831194536 | 70 | 159 | 0.9 | 5.2 | 0.01 | 0.66 | 0.53 | 89 | 1012.4 |
| 20260831193035 | 69 | 139 | 1.7 | 7.8 | 0.01 | 0.66 | 0.53 | 90 | 1012.0 |
| 20260831191532 | 69 | 168 | 1.7 | 9.6 | 0.01 | 0.66 | 0.53 | 90 | 1012.5 |
| 20260831190032 | 70 | 188 | 4.3 | 8.7 | 0.00 | 0.65 | 0.52 | 91 | 1012.7 |
| 20260831184529 | 71 | 184 | 2.6 | 8.7 | 0.00 | 0.65 | 0.52 | 91 | 1012.9 |
| 20260831183031 | 71 | 193 | 1.7 | 8.7 | 0.03 | 0.65 | 0.52 | 92 | 1013.3 |
| 20260831181526 | 71 | 189 | 2.6 | 5.2 | 0.05 | 0.65 | 0.52 | 92 | 1013.7 |
| 20260831180026 | 71 | 138 | 0.0 | 2.6 | 0.05 | 0.65 | 0.52 | 92 | 1014.4 |
| 20260831174525 | 71 | 203 | 0.0 | 1.7 | 0.05 | 0.65 | 0.52 | 92 | 1014.9 |
| 20260831173024 | 71 | 295 | 0.0 | 1.7 | 0.02 | 0.62 | 0.49 | 91 | 1015.3 |
| 20260831171526 | 72 | 290 | 0.9 | 2.6 | 0.00 | 0.60 | 0.47 | 91 | 1015.6 |
| 20260831170029 | 72 | 232 | 0.9 | 4.3 | 0.01 | 0.60 | 0.47 | 91 | 1015.2 |
| 20260831164522 | 72 | 244 | 0.9 | 3.5 | 0.03 | 0.62 | 0.47 | 93 | 1015.2 |
| 20260831163018 | 70 | 167 | 0.0 | 1.7 | 0.03 | 0.62 | 0.47 | 93 | 1015.1 |
| 20260831161517 | 69 | 200 | 0.0 | 0.0 | 0.03 | 0.62 | 0.47 | 93 | 1015.0 |
| 20260831160013 | 69 | 253 | 0.0 | 0.9 | 0.09 | 0.64 | 0.46 | 93 | 1015.0 |
| 20260831154510 | 69 | 253 | 0.0 | 2.6 | 0.23 | 0.62 | 0.44 | 93 | 1015.4 |
| 20260831153008 | 69 | 278 | 0.9 | 6.1 | 0.23 | 0.62 | 0.44 | 93 | 1015.8 |
| 20260831151515 | 68 | 306 | 0.9 | 7.8 | 0.24 | 0.62 | 0.44 | 93 | 1015.5 |
| 20260831150007 | 68 | 279 | 4.3 | 11.3 | 0.16 | 0.56 | 0.36 | 93 | 1015.7 |
| 20260831144504 | 69 | 253 | 0.9 | 3.5 | 0.01 | 0.42 | 0.21 | 93 | 1015.4 |
| 20260831143117 | 69 | 223 | 0.0 | 0.0 | 0.01 | 0.42 | 0.21 | 93 | 1014.7 |
| 20260831141607 | 69 | 223 | 0.0 | 0.0 | 0.00 | 0.41 | 0.20 | 93 | 1014.5 |
| 20260831140100 | 69 | 223 | 0.0 | 0.0 | 0.00 | 0.41 | 0.20 | 93 | 1014.5 |
| 20260831134601 | 69 | 223 | 0.0 | 0.0 | 0.00 | 0.43 | 0.20 | 93 | 1014.2 |
| 20260831133056 | 69 | 159 | 0.0 | 1.7 | 0.00 | 0.43 | 0.20 | 92 | 1014.3 |
| 20260831131601 | 69 | 159 | 0.0 | 1.7 | 0.00 | 0.43 | 0.20 | 93 | 1014.2 |
| 20260831130056 | 69 | 159 | 0.0 | 0.9 | 0.00 | 0.43 | 0.20 | 93 | 1013.9 |
| 20260831124602 | 69 | 167 | 0.9 | 4.3 | 0.00 | 0.47 | 0.20 | 93 | 1013.9 |
| 20260831123054 | 69 | 179 | 0.9 | 2.6 | 0.00 | 0.47 | 0.20 | 93 | 1014.1 |
| 20260831121557 | 68 | 219 | 0.0 | 0.9 | 0.01 | 0.47 | 0.20 | 93 | 1014.0 |
| 20260831120047 | 67 | 219 | 0.0 | 0.9 | 0.02 | 0.47 | 0.20 | 93 | 1014.1 |
| 20260831114551 | 67 | 219 | 0.0 | 0.0 | 0.05 | 0.50 | 0.20 | 93 | 1013.8 |
| 20260831113044 | 67 | 144 | 1.7 | 4.3 | 0.11 | 0.50 | 0.20 | 93 | 1013.7 |
| 20260831111548 | 67 | 160 | 0.9 | 4.3 | 0.13 | 0.49 | 0.19 | 93 | 1013.5 |
| 20260831110054 | 67 | 165 | 0.9 | 4.3 | 0.13 | 0.47 | 0.17 | 93 | 1013.8 |
| 20260831104543 | 67 | 238 | 0.9 | 6.1 | 0.11 | 0.46 | 0.15 | 93 | 1014.1 |
| 20260831103040 | 67 | 280 | 0.0 | 0.9 | 0.08 | 0.40 | 0.09 | 92 | 1014.3 |
| 20260831101544 | 67 | 279 | 0.0 | 0.9 | 0.05 | 0.37 | 0.06 | 92 | 1014.6 |
| 20260831100037 | 67 | 279 | 0.0 | 0.9 | 0.03 | 0.35 | 0.04 | 92 | 1014.4 |
| 20260831094540 | 67 | 279 | 0.0 | 0.9 | 0.03 | 0.35 | 0.04 | 91 | 1014.4 |
| 20260831093035 | 67 | 213 | 1.7 | 4.3 | 0.00 | 0.32 | 0.01 | 91 | 1014.1 |
| 20260831091545 | 67 | 212 | 0.0 | 2.6 | 0.00 | 0.32 | 0.01 | 92 | 1013.9 |
| 20260831090033 | 67 | 205 | 0.9 | 3.5 | 0.00 | 0.32 | 0.01 | 92 | 1014.0 |
| 20260831084532 | 67 | 208 | 1.7 | 3.5 | 0.00 | 0.32 | 0.01 | 92 | 1014.0 |
| 20260831083031 | 67 | 223 | 0.0 | 1.7 | 0.00 | 0.32 | 0.01 | 92 | 1014.1 |
| 20260831081531 | 67 | 253 | 0.9 | 4.3 | 0.00 | 0.32 | 0.01 | 92 | 1013.8 |
| 20260831080032 | 67 | 225 | 0.9 | 3.5 | 0.00 | 0.32 | 0.01 | 92 | 1013.8 |
| 20260831074528 | 68 | 227 | 0.0 | 2.6 | 0.00 | 0.32 | 0.01 | 92 | 1014.1 |
| 20260831073029 | 67 | 232 | 0.9 | 5.2 | 0.00 | 0.32 | 0.01 | 92 | 1014.0 |
| 20260831071531 | 68 | 231 | 0.9 | 4.3 | 0.00 | 0.32 | 0.01 | 92 | 1014.0 |
| 20260831070025 | 67 | 240 | 0.9 | 2.6 | 0.00 | 0.32 | 0.01 | 92 | 1014.1 |
| 20260831064525 | 68 | 206 | 1.7 | 3.5 | 0.01 | 0.32 | 0.01 | 92 | 1014.2 |
| 20260831063022 | 68 | 201 | 1.7 | 5.2 | 0.01 | 0.32 | 0.01 | 92 | 1014.5 |
| 20260831061521 | 68 | 201 | 1.7 | 6.1 | 0.01 | 0.32 | 0.01 | 92 | 1014.5 |
| 20260831060020 | 68 | 210 | 0.9 | 7.8 | 0.01 | 0.32 | 0.01 | 92 | 1014.5 |
| 20260831054518 | 68 | 215 | 1.7 | 6.1 | 0.00 | 0.31 | 0.00 | 91 | 1014.3 |
| 20260831053022 | 68 | 202 | 2.6 | 5.2 | 0.00 | 0.31 | 0.00 | 91 | 1014.6 |
| 20260831051520 | 68 | 196 | 3.5 | 13.0 | 0.00 | 0.31 | 0.00 | 91 | 1014.4 |
| 20260831050014 | 68 | 215 | 2.6 | 7.8 | 0.00 | 0.31 | 0.00 | 91 | 1014.4 |
| 20260831044514 | 68 | 199 | 3.5 | 7.8 | 0.00 | 0.31 | 0.00 | 91 | 1014.4 |
| 20260831043012 | 68 | 191 | 2.6 | 7.0 | 0.00 | 0.31 | 0.00 | 92 | 1014.5 |
| 20260831041511 | 68 | 211 | 0.9 | 4.3 | 0.00 | 0.31 | 0.00 | 92 | 1014.5 |
| 20260831040022 | 68 | 235 | 1.7 | 4.3 | 0.00 | 0.31 | 0.31 | 92 | 1014.5 |
| 20260831034512 | 68 | 235 | 2.6 | 7.0 | 0.00 | 0.31 | 0.31 | 92 | 1014.5 |
| 20260831033007 | 68 | 219 | 2.6 | 9.6 | 0.00 | 0.31 | 0.31 | 92 | 1014.6 |
| 20260831031506 | 68 | 177 | 2.6 | 7.0 | 0.00 | 0.31 | 0.31 | 92 | 1014.6 |
| 20260831030005 | 68 | 232 | 2.6 | 8.7 | 0.00 | 0.31 | 0.31 | 92 | 1014.4 |
| 20260831024504 | 67 | 138 | 3.5 | 7.8 | 0.00 | 0.31 | 0.31 | 92 | 1014.3 |
| 20260831023006 | 67 | 159 | 2.6 | 7.8 | 0.00 | 0.31 | 0.31 | 92 | 1014.3 |
| 20260831021503 | 67 | 142 | 3.5 | 9.6 | 0.00 | 0.31 | 0.31 | 92 | 1014.3 |
| 20260831020001 | 67 | 155 | 3.5 | 10.4 | 0.00 | 0.31 | 0.31 | 92 | 1014.4 |
| 20260831014501 | 67 | 171 | 6.1 | 10.4 | 0.00 | 0.31 | 0.31 | 92 | 1014.6 |
| 20260831013108 | 67 | 185 | 6.1 | 10.4 | 0.00 | 0.31 | 0.31 | 92 | 1014.6 |
| 20260831011559 | 67 | 156 | 6.1 | 10.4 | 0.00 | 0.31 | 0.31 | 92 | 1014.6 |
| 20260831010059 | 67 | 178 | 4.3 | 9.6 | 0.00 | 0.31 | 0.31 | 92 | 1014.5 |
| 20260831004603 | 67 | 134 | 5.2 | 11.3 | 0.00 | 0.31 | 0.31 | 92 | 1014.5 |
| 20260831003057 | 67 | 192 | 4.3 | 10.4 | 0.00 | 0.31 | 0.31 | 92 | 1014.5 |
| 20260831001556 | 67 | 153 | 4.3 | 13.9 | 0.00 | 0.31 | 0.31 | 92 | 1014.7 |
| 20260831000056 | 67 | 165 | 2.6 | 10.4 | 0.00 | 0.31 | 0.31 | 92 | 1014.7 |
| 20260830234556 | 67 | 171 | 1.7 | 8.7 | 0.00 | 0.31 | 0.31 | 92 | 1014.7 |